TIME,DELAY(SENSOR),PRES,OXYGEN,RAWTEMP,T(OPTODE),TCPHASE,FLUOR,BETA(BETA700),BETA(BETA412),BETA(BETA440),CDOM,C(CSC),ED(ED412.40),ED(ED444.00),ED(ED489.70),ED(ED554.30),LU(LU411.80),LU(LU443.40),LU(LU489.60),LU(LU554.10),COMP,TILTX,TILTY,CHECK
1348975748,5805,843.1400146484375000,43.4465789794921900,662.1571044921875000,4.5569319725036620,54.5071296691894500,52,102,89,79,82,15240,2147759634,2147419776,2148006610,2147871579,2147639469,2147064795,2148257462,2147197860,1220,4,13,2018
1348979344,5811,901.8800048828125000,46.9105682373046900,667.3986816406250000,4.3840889930725100,54.0737609863281250,53,99,88,78,83,15233,2147759588,2147420342,2148009417,2147873444,2147642029,2147064548,2148255396,2147198921,314,5,13,48897
1348982944,5808,913.2299804687500000,47.0420417785644500,667.8546142578125000,4.3690428733825680,54.0604591369628900,52,99,90,79,81,15235,2147758025,2147423753,2148011510,2147873133,2147643309,2147066569,2148258102,2147198006,3548,5,13,18052
1348986544,5811,947.8800048828125000,47.3537292480468750,670.1795043945312000,4.2922668457031250,54.0418205261230500,52,98,87,79,82,15231,2147760585,2147422939,2148009408,2147872941,2147645805,2147062564,2148264338,2147198829,3575,4,13,10131
1348990144,5807,947.7199707031250000,47.3482894897460940,670.7260742187500000,4.2742080688476560,54.0462303161621100,53,106,87,79,82,15228,2147755300,2147421138,2148007158,2147872082,2147645970,2147062363,2148260160,2147196461,21,5,13,55042
1348993744,5808,955.7299804687500000,47.0451202392578100,669.5833129882812000,4.3119621276855470,54.0777702331543000,53,97,89,78,81,15233,2147760064,2147419849,2148009344,2147874614,2147643456,2147063771,2148251401,2147197156,536,4,13,40217
1348997344,5810,981.3300170898438000,47.8406105041503900,672.3010864257812000,4.2221531867980960,53.9981307983398440,53,97,85,79,82,15231,2147759021,2147418660,2148012717,2147874788,2147645659,2147057362,2148258770,2147196132,2835,4,13,57050
1349000944,5809,965.0000000000000000,47.9267501831054700,673.4445800781250000,4.1843428611755370,54.0058212280273440,52,101,90,79,81,15234,2147759241,2147422528,2148009389,2147872621,2147644150,2147061266,2148254884,2147198921,3122,4,13,21254
1349004544,5807,981.0300292968750000,48.5047683715820300,674.6657714843750000,4.1439461708068850,53.9379692077636700,52,98,90,80,82,15232,2147759716,2147425984,2148009344,2147872521,2147644187,2147064594,2148260315,2147199094,3352,5,13,23858
1349008144,5809,975.4500122070312000,48.2035102844238300,673.8457031250000000,4.1710758209228520,53.9688606262207000,53,98,88,79,82,15234,2147761307,2147421120,2148012123,2147873517,2147644982,2147062464,2148259364,2147191926,249,5,13,42206
1349011744,5808,987.9000244140625000,48.1251296997070300,673.4132080078125000,4.1853809356689450,53.9747200012207000,53,98,85,78,80,15231,2147760265,2147422793,2148011401,2147873792,2147643666,2147057417,2148255460,2147200749,3205,4,13,25785
1349015344,5812,982.7199707031250000,47.3838882446289060,673.3781127929688000,4.1865429878234860,54.0804595947265600,53,104,88,79,82,15229,2147754496,2147420123,2148012379,2147873874,2147646884,2147064502,2148261760,2147194578,72,5,13,30361
1349018944,5806,985.3599853515625000,48.0211906433105500,674.4431762695312000,4.1513099670410160,53.9984512329101560,52,97,86,79,82,15231,2147760237,2147422098,2148011392,2147869686,2147648978,2147065563,2148257563,2147197083,3341,4,13,49009
1349022544,5806,979.7600097656250000,47.9531784057617200,674.1622924804688000,4.1606030464172360,54.0084304809570300,53,99,92,79,80,15229,2147760704,2147422235,2148007241,2147873243,2147645568,2147061522,2148262665,2147198774,147,5,13,27618
1349026144,5809,985.2000122070312000,48.3538208007812500,674.9503784179688000,4.1345291137695310,53.9622611999511700,52,102,86,80,81,15201,2147759168,2147419419,2148009353,2147874834,2147647222,2147063789,2148261915,2147195081,3460,4,13,47625
1349029744,5806,984.7100219726562000,48.3807601928710940,675.2474975585938000,4.1246972084045410,53.9631690979003900,52,100,87,80,80,15184,2147760246,2147419072,2148011346,2147875849,2147645586,2147063798,2148256246,2147198555,3399,4,13,59455
1349033344,5807,978.4000244140625000,47.7946205139160160,674.7227783203125000,4.1420588493347170,54.0362892150878900,52,102,89,80,82,15184,2147764982,2147420717,2148009033,2147874130,2147647250,2147063762,2148260617,2147203803,20,5,13,37603
1349036944,5806,983.5499877929688000,47.8624610900878900,674.5241699218750000,4.1486282348632810,54.0221595764160160,53,98,85,79,81,15196,2147757705,2147420754,2148010038,2147875190,2147647542,2147065408,2148265225,2147197970,3487,4,13,63387
1349040544,5806,987.0000000000000000,47.4789390563964840,675.3173217773438000,4.1223850250244140,54.0884513854980500,52,99,90,79,82,15185,2147759277,2147422628,2148004306,2147876973,2147648548,2147054912,2148263277,2147196964,150,5,13,23894
1349044144,5807,974.9299926757812000,47.8790588378906250,675.3582153320312000,4.1210308074951170,54.0291481018066400,53,100,86,79,81,15186,2147758912,2147425088,2148007012,2147871241,2147644836,2147061586,2148263488,2147201334,202,5,13,63101
1349047744,5810,975.4500122070312000,48.1474494934082000,676.4133300781250000,4.0861091613769530,54.0093498229980500,52,98,85,79,81,15190,2147758180,2147420617,2148011702,2147872502,2147645010,2147058907,2148262966,2147197869,324,5,13,28676
1349051344,5806,978.7299804687500000,48.3418502807617200,676.2777709960938000,4.0905928611755370,53.9819107055664060,52,100,85,79,80,15179,2147759140,2147420754,2148008950,2147873316,2147642560,2147060452,2148262262,2147196882,132,4,13,51375
1349054944,5809,987.8900146484375000,48.0359802246093750,674.7686767578125000,4.1405391693115230,54.0033798217773440,52,102,89,79,82,15190,2147757760,2147419410,2148012681,2147872804,2147648073,2147057426,2148263259,2147196900,293,5,13,10825
1349058544,5810,987.6300048828125000,47.7229003906250000,675.6768188476562000,4.1104907989501950,54.0598487854003900,52,97,88,80,82,15193,2147757394,2147421321,2148011017,2147872009,2147644068,2147056502,2148261522,2147197686,321,5,13,46820
1349062144,5810,985.1199951171875000,47.8669509887695300,674.5418701171875000,4.1480431556701660,54.0263099670410160,52,100,88,78,82,15187,2147759158,2147419273,2148008722,2147875556,2147644141,2147066752,2148257088,2147199798,217,5,13,60476
1349065744,5804,977.9699707031250000,47.8738594055175800,675.4658203125000000,4.1174697875976560,54.0336914062500000,52,100,88,78,81,15194,2147761563,2147420562,2148010011,2147872612,2147646729,2147059785,2148258112,2147199515,102,5,13,4046
1349069344,5812,973.8099975585938000,48.0262794494628900,676.4605712890625000,4.0845432281494140,54.0252494812011700,53,101,87,79,82,15196,2147762340,2147421540,2148010459,2147873371,2147648585,2147058925,2148264365,2147200283,500,5,13,55911
1349072944,5811,994.9000244140625000,47.5546913146972660,674.5894165039062000,4.1464748382568360,54.0684509277343750,52,101,84,79,82,15195,2147758738,2147418651,2148010697,2147875099,2147645650,2147065892,2148260187,2147197449,659,5,13,47496
1349076544,5807,991.5300292968750000,47.9761314392089840,674.4628295898438000,4.1506628990173340,54.0078697204589840,52,115,90,79,81,15194,2147756416,2147419830,2148008347,2147876132,2147642194,2147058368,2148259766,2147197083,132,5,13,40587
1349080144,5807,979.6900024414062000,47.6918792724609400,675.3184814453125000,4.1223468780517580,54.0571098327636700,51,99,89,79,80,15196,2147762925,2147421851,2148009691,2147874550,2147643264,2147064484,2148261961,2147199177,852,5,13,59803
1349083744,5807,991.3200073242188000,47.7091903686523440,674.0308837890625000,4.1649489402771000,54.0404815673828100,52,97,87,79,80,15176,2147759789,2147419099,2148010550,2147872493,2147643200,2147065280,2148263899,2147197686,3397,5,13,6904
1349087344,5811,996.3499755859375000,47.3763389587402340,673.8369140625000000,4.1713681221008300,54.0852317810058600,52,100,87,79,81,15175,2147760210,2147419584,2148011245,2147875894,2147643428,2147066651,2148259840,2147198016,325,4,13,19441
1349090944,5808,996.7199707031250000,46.8938217163085940,673.6350708007812000,4.1780400276184080,54.1498908996582000,53,99,87,80,82,15173,2147761645,2147420041,2148012553,2147873892,2147646646,2147064841,2148265152,2147197266,652,5,13,48599
1349094544,5810,994.6099853515625000,46.5667610168457000,673.7109985351562000,4.1755309104919430,54.1946487426757800,53,99,86,79,81,15171,2147756745,2147420041,2148011986,2147874560,2147647131,2147063250,2148264612,2147199460,85,5,13,35872
1349098144,5808,989.3499755859375000,47.4760208129882800,675.3729858398438000,4.1205430030822750,54.0876998901367200,52,101,88,78,82,15174,2147759442,2147422262,2148011200,2147873490,2147642752,2147061019,2148262080,2147197696,350,5,13,17282
1349101744,5810,984.2199707031250000,48.1159706115722660,676.4735717773438000,4.0841121673583980,54.0138511657714840,52,98,86,78,81,15176,2147761426,2147420160,2148009654,2147877001,2147643894,2147064009,2148264109,2147193691,200,5,13,11847
1349105344,5807,992.0700073242188000,48.0321006774902340,674.5449829101562000,4.1479430198669430,53.9971809387207000,52,98,85,79,82,15172,2147760804,2147419794,2148011053,2147875776,2147642550,2147064667,2148261293,2147199259,3322,4,13,23127
1349108944,5811,981.1799926757812000,47.8116989135742200,676.7567749023438000,4.0747342109680180,54.0564002990722660,53,100,88,79,82,15216,2147759588,2147420681,2148009014,2147871542,2147644982,2147064402,2148258934,2147197458,3309,5,13,64731
1349112544,5810,989.6599731445312000,48.0520095825195300,676.7672119140625000,4.0743899345397950,54.0262184143066400,52,99,89,80,83,15219,2147758939,2147421805,2148009682,2147874349,2147644160,2147060406,2148264274,2147194806,61,5,13,13931
1349116144,5809,984.5399780273438000,47.6720199584960940,676.6914062500000000,4.0769000053405760,54.0807189941406250,53,99,83,79,81,15222,2147759360,2147421174,2148011437,2147874432,2147645120,2147066468,2148261814,2147195712,3485,5,13,8382
1349119744,5807,986.3300170898438000,47.2916488647460940,676.9783935546875000,4.0673980712890625,54.1357498168945300,52,98,87,80,82,15218,2147760018,2147420352,2148012507,2147873600,2147646875,2147067501,2148259766,2147196452,165,5,13,53069
1349120456,5806,988.3800048828125000,47.0184783935546900,676.9591064453125000,4.0680370330810550,54.1765708923339840,52,101,86,79,83,15229,2147762523,2147422381,2148014464,2147875200,2147646784,2147067904,2148263332,2147197257,104,4,13,13703
